Change the Weather History Date:

Sunday, October 14, 2012

  Actual Average Record
Temperature  
Mean Temperature 74 °F -  
Max Temperature 79 °F 80 °F 87 °F (2004)
Min Temperature 69 °F 67 °F 62 °F (2004)
Cooling Degree Days 9    
Growing Degree Days 24 (Base 50)    
Moisture  
Dew Point 68 °F    
Average Humidity 84    
Maximum Humidity 94    
Minimum Humidity 65    
Precipitation  
Precipitation 0.14 in - - ()
Sea Level Pressure  
Sea Level Pressure 30.09 in    
Wind  
Wind Speed 4 mph (NE)    
Max Wind Speed 17 mph    
Max Gust Speed 21 mph    
Visibility 8 miles    
Events Rain    
Averages and records for this station are not official NWS values.
T = Trace of Precipitation, MM = Missing Value Source: NWS Daily Summary

Daily Weather History Graph

Daily Weather History Graph

Search for Another Location

Airport or City:

Trip Planner

Search our weather history database for the weather conditions in past years. The results will help you decide how hot, cold, wet, or windy it might be!

Date:

Astronomy

Oct. 14, 2012 Rise Set
Actual Time 6:27 AM HST 6:07 PM HST
Civil Twilight 6:05 AM HST 6:30 PM HST
Nautical Twilight 5:39 AM HST 6:56 PM HST
Astronomical Twilight 5:13 AM HST 7:21 PM HST
Moon 5:40 AM HST (10/14) 5:38 PM HST (10/14)
Length of Visible Light 12h 24m
Length of Day
11h 39m
Waning Crescent, 1% of the Moon is Illuminated
Oct 14
Waning Crescent
Oct 15
New
Oct 21
First Quarter
Oct 29
Full
Nov 6
Last Quarter

Hourly Weather History & Observations

Time (HST) Temp. Dew Point Humidity Pressure Visibility Wind Dir Wind Speed Gust Speed Precip Events Conditions
12:11 AM 73.4 °F 68.0 °F 83% 30.12 in 10.0 mi NE 5.8 mph - N/A   Mostly Cloudy
12:20 AM 73.4 °F 68.0 °F 83% 30.12 in 10.0 mi NE 4.6 mph - N/A   Scattered Clouds
12:48 AM 73.4 °F 68.0 °F 83% 30.11 in 10.0 mi ENE 6.9 mph - N/A   Light Drizzle
12:51 AM 73.4 °F 68.0 °F 83% 30.11 in 9.0 mi ENE 6.9 mph - N/A   Light Drizzle
12:55 AM 72.7 °F 68.0 °F 85% 30.11 in 8.0 mi ENE 8.1 mph - 0.00 in   Light Drizzle
12:59 AM 73.4 °F 68.0 °F 83% 30.11 in 9.0 mi East 8.1 mph - N/A   Light Drizzle
1:02 AM 73.4 °F 68.0 °F 83% 30.11 in 10.0 mi ENE 6.9 mph - N/A   Scattered Clouds
1:28 AM 71.6 °F 68.0 °F 88% 30.10 in 10.0 mi Calm Calm - N/A   Light Drizzle
1:41 AM 71.6 °F 68.0 °F 88% 30.09 in 10.0 mi Calm Calm - N/A   Scattered Clouds
1:50 AM 71.6 °F 68.0 °F 88% 30.09 in 10.0 mi NE 4.6 mph - N/A   Light Drizzle
1:55 AM 72.7 °F 68.2 °F 86% 30.09 in 10.0 mi ENE 6.9 mph - 0.00 in   Light Drizzle
2:12 AM 71.6 °F 68.0 °F 88% 30.09 in 10.0 mi ENE 8.1 mph - N/A   Partly Cloudy
2:19 AM 71.6 °F 68.0 °F 88% 30.08 in 10.0 mi NE 6.9 mph - N/A   Light Drizzle
2:48 AM 71.6 °F 68.0 °F 88% 30.08 in 10.0 mi Calm Calm - N/A   Clear
2:55 AM 71.8 °F 67.8 °F 87% 30.07 in 10.0 mi NE 3.5 mph - 0.01 in   Light Drizzle
3:18 AM 71.6 °F 68.0 °F 88% 30.07 in 10.0 mi NE 5.8 mph - N/A   Clear
3:25 AM 71.6 °F 68.0 °F 88% 30.07 in 10.0 mi NNE 6.9 mph - N/A   Light Drizzle
3:26 AM 71.6 °F 68.0 °F 88% 30.07 in 10.0 mi NNE 6.9 mph - N/A   Partly Cloudy
3:33 AM 71.6 °F 68.0 °F 88% 30.07 in 10.0 mi NNE 3.5 mph - N/A   Light Drizzle
3:55 AM 71.2 °F 68.2 °F 90% 30.07 in 10.0 mi NE 3.5 mph - 0.00 in   Light Drizzle
4:10 AM 71.6 °F 68.0 °F 88% 30.07 in 10.0 mi Calm Calm - N/A   Clear
4:14 AM 71.6 °F 68.0 °F 88% 30.07 in 10.0 mi Calm Calm - N/A   Light Drizzle
4:24 AM 71.6 °F 68.0 °F 88% 30.07 in 10.0 mi Calm Calm - N/A   Clear
4:39 AM 71.6 °F 68.0 °F 88% 30.07 in 8.0 mi Calm Calm - N/A   Light Drizzle
4:48 AM 71.6 °F 68.0 °F 88% 30.07 in 4.0 mi Calm Calm - N/A Rain Light Rain
4:55 AM 71.1 °F 68.0 °F 90% 30.07 in 6.0 mi Calm Calm - 0.01 in   Light Drizzle
5:41 AM 71.6 °F 68.0 °F 88% 30.09 in 10.0 mi NNW 3.5 mph - N/A   Mostly Cloudy
5:53 AM 69.8 °F 68.0 °F 94% 30.09 in 9.0 mi Calm Calm - N/A   Light Drizzle
5:55 AM 70.5 °F 68.2 °F 92% 30.09 in 8.0 mi Calm Calm - 0.02 in   Light Drizzle
5:59 AM 69.8 °F 68.0 °F 94% 30.09 in 8.0 mi Calm Calm - N/A   Light Drizzle
6:25 AM 69.8 °F 68.0 °F 94% 30.09 in 2.5 mi Calm Calm - N/A Rain Light Rain
6:30 AM 69.8 °F 68.0 °F 94% 30.09 in 3.0 mi Calm Calm - N/A Rain Light Rain
6:34 AM 69.8 °F 68.0 °F 94% 30.10 in 6.0 mi Calm Calm - N/A Rain Light Rain
6:41 AM 69.8 °F 68.0 °F 94% 30.10 in 2.5 mi Calm Calm - N/A Rain Rain
6:47 AM 69.8 °F 68.0 °F 94% 30.10 in 2.0 mi West 3.5 mph - N/A Rain Light Rain
6:54 AM 69.8 °F 68.0 °F 94% 30.10 in 3.0 mi Variable 4.6 mph - N/A Rain Light Rain
6:55 AM 70.3 °F 68.2 °F 93% 30.10 in 3.0 mi North 3.5 mph - 0.03 in Rain Light Rain
7:27 AM 71.6 °F 68.0 °F 88% 30.11 in 7.0 mi NE 3.5 mph - N/A   Light Drizzle
7:48 AM 71.6 °F 69.8 °F 94% 30.11 in 4.0 mi NE 5.8 mph - N/A Rain Light Rain
7:52 AM 71.6 °F 69.8 °F 94% 30.11 in 4.0 mi ENE 4.6 mph - N/A Rain Light Rain
7:53 AM 71.6 °F 69.8 °F 94% 30.11 in 4.0 mi ENE 3.5 mph - N/A Rain Light Rain
7:55 AM 71.6 °F 68.9 °F 91% 30.11 in 3.0 mi Calm Calm - 0.02 in Rain Rain
7:56 AM 71.6 °F 69.8 °F 94% 30.11 in 2.5 mi Variable 3.5 mph - N/A Rain Rain
8:00 AM 71.6 °F 69.8 °F 94% 30.11 in 1.8 mi NNE 3.5 mph - N/A Rain Rain
8:05 AM 71.6 °F 68.0 °F 88% 30.12 in 2.0 mi Calm Calm - N/A Rain Light Rain
8:06 AM 71.6 °F 68.0 °F 88% 30.12 in 1.8 mi Calm Calm - N/A Rain Rain
8:08 AM 71.6 °F 69.8 °F 94% 30.12 in 2.0 mi Calm Calm - N/A Rain Rain
8:10 AM 71.6 °F 69.8 °F 94% 30.12 in 1.8 mi Calm Calm - N/A Rain Light Rain
8:15 AM 71.6 °F 69.8 °F 94% 30.12 in 2.0 mi Calm Calm - N/A Rain Light Rain
8:21 AM 71.6 °F 69.8 °F 94% 30.12 in 3.0 mi Calm Calm - N/A Rain Light Rain
8:22 AM 71.6 °F 69.8 °F 94% 30.12 in 2.5 mi Calm Calm - N/A Rain Light Rain
8:27 AM 71.6 °F 69.8 °F 94% 30.12 in 2.5 mi North 5.8 mph - N/A Rain Light Rain
8:30 AM 71.6 °F 69.8 °F 94% 30.12 in 3.0 mi NNE 4.6 mph - N/A Rain Light Rain
8:35 AM 71.6 °F 69.8 °F 94% 30.12 in 8.0 mi Variable 4.6 mph - N/A   Light Drizzle
8:39 AM 71.6 °F 69.8 °F 94% 30.12 in 10.0 mi ENE 8.1 mph - N/A   Light Drizzle
8:55 AM 72.1 °F 69.3 °F 91% 30.12 in 3.0 mi ENE 4.6 mph - 0.04 in Rain Light Rain
9:44 AM 73.4 °F 69.8 °F 88% 30.12 in 10.0 mi NE 5.8 mph - N/A   Mostly Cloudy
9:50 AM 73.4 °F 69.8 °F 88% 30.12 in 8.0 mi NE 5.8 mph - N/A   Light Drizzle
9:55 AM 73.2 °F 69.6 °F 88% 30.13 in 8.0 mi NE 6.9 mph - 0.01 in   Light Drizzle
10:34 AM 73.4 °F 69.8 °F 88% 30.12 in 10.0 mi NE 5.8 mph - N/A   Overcast
10:39 AM 73.4 °F 69.8 °F 88% 30.12 in 10.0 mi ENE 8.1 mph - N/A   Light Drizzle
10:49 AM 75.2 °F 69.8 °F 83% 30.12 in 10.0 mi ENE 6.9 mph - N/A   Overcast
10:55 AM 74.7 °F 70.2 °F 86% 30.12 in 10.0 mi ENE 8.1 mph - 0.00 in   Overcast
11:18 AM 75.2 °F 69.8 °F 83% 30.12 in 10.0 mi ENE 8.1 mph - N/A   Mostly Cloudy
11:55 AM 75.7 °F 68.9 °F 79% 30.10 in 10.0 mi East 6.9 mph - N/A   Scattered Clouds
12:55 PM 78.8 °F 67.1 °F 67% 30.07 in 10.0 mi East 10.4 mph - N/A   Mostly Cloudy
1:36 PM 78.8 °F 68.0 °F 69% 30.06 in 10.0 mi East 8.1 mph - N/A   Mostly Cloudy
1:43 PM 77.0 °F 68.0 °F 74% 30.06 in 10.0 mi SE 5.8 mph - N/A   Overcast
1:55 PM 78.8 °F 68.2 °F 70% 30.06 in 10.0 mi Variable 5.8 mph - N/A   Mostly Cloudy
2:36 PM 78.8 °F 66.2 °F 65% 30.04 in 10.0 mi ENE 13.8 mph 20.7 mph N/A   Mostly Cloudy
2:47 PM 77.0 °F 66.2 °F 69% 30.04 in 10.0 mi East 6.9 mph - N/A   Mostly Cloudy
2:55 PM 79.2 °F 66.6 °F 65% 30.04 in 10.0 mi NNE 11.5 mph - N/A   Mostly Cloudy
2:57 PM 78.8 °F 66.2 °F 65% 30.04 in 10.0 mi NE 6.9 mph - N/A   Mostly Cloudy
3:08 PM 78.8 °F 66.2 °F 65% 30.04 in 10.0 mi East 9.2 mph - N/A   Mostly Cloudy
3:11 PM 78.8 °F 66.2 °F 65% 30.04 in 10.0 mi ENE 6.9 mph - N/A   Mostly Cloudy
3:24 PM 78.8 °F 66.2 °F 65% 30.04 in 10.0 mi NE 12.7 mph - N/A   Mostly Cloudy
3:55 PM 78.3 °F 66.0 °F 66% 30.04 in 10.0 mi NNE 12.7 mph - N/A   Mostly Cloudy
4:55 PM 77.7 °F 66.0 °F 67% 30.04 in 10.0 mi NE 17.3 mph - N/A   Scattered Clouds
5:18 PM 77.0 °F 66.2 °F 69% 30.04 in 10.0 mi NE 12.7 mph - N/A   Light Drizzle
5:27 PM 77.0 °F 66.2 °F 69% 30.04 in 10.0 mi NE 8.1 mph - N/A   Mostly Cloudy
5:34 PM 75.2 °F 66.2 °F 73% 30.05 in 10.0 mi NNE 9.2 mph - N/A   Light Drizzle
5:45 PM 75.2 °F 66.2 °F 73% 30.05 in 10.0 mi NE 8.1 mph - N/A   Mostly Cloudy
5:55 PM 75.6 °F 66.7 °F 74% 30.05 in 9.0 mi NE 8.1 mph - 0.00 in   Light Drizzle
6:04 PM 75.2 °F 66.2 °F 73% 30.05 in 10.0 mi NE 11.5 mph - N/A   Overcast
6:40 PM 75.2 °F 66.2 °F 73% 30.06 in 10.0 mi Calm Calm - N/A   Light Drizzle
6:51 PM 73.4 °F 66.2 °F 78% 30.07 in 10.0 mi East 6.9 mph - N/A   Light Drizzle
6:52 PM 73.4 °F 66.2 °F 78% 30.07 in 10.0 mi East 5.8 mph - N/A   Mostly Cloudy
6:53 PM 73.4 °F 66.2 °F 78% 30.07 in 10.0 mi ESE 4.6 mph - N/A   Overcast
6:55 PM 73.9 °F 66.4 °F 77% 30.07 in 10.0 mi ESE 4.6 mph - 0.00 in   Overcast
6:56 PM 73.4 °F 66.2 °F 78% 30.07 in 10.0 mi ESE 4.6 mph - N/A   Overcast
7:00 PM 73.4 °F 66.2 °F 78% 30.07 in 10.0 mi East 3.5 mph - N/A   Overcast
7:10 PM 73.4 °F 66.2 °F 78% 30.07 in 10.0 mi Calm Calm - N/A   Overcast
7:11 PM 73.4 °F 66.2 °F 78% 30.07 in 10.0 mi Calm Calm - N/A   Overcast
7:32 PM 73.4 °F 66.2 °F 78% 30.07 in 10.0 mi NNE 4.6 mph - N/A   Mostly Cloudy
7:35 PM 73.4 °F 68.0 °F 83% 30.07 in 10.0 mi Variable 3.5 mph - N/A   Mostly Cloudy
7:46 PM 73.4 °F 68.0 °F 83% 30.08 in 10.0 mi WNW 5.8 mph - N/A   Mostly Cloudy
7:55 PM 72.5 °F 67.3 °F 84% 30.08 in 10.0 mi Calm Calm - N/A   Mostly Cloudy
7:58 PM 71.6 °F 68.0 °F 88% 30.08 in 10.0 mi NW 5.8 mph - N/A   Mostly Cloudy
8:00 PM 73.4 °F 68.0 °F 83% 30.08 in 10.0 mi Variable 3.5 mph - N/A   Mostly Cloudy
8:12 PM 71.6 °F 66.2 °F 83% 30.09 in 10.0 mi Calm Calm - N/A   Light Drizzle
8:13 PM 71.6 °F 66.2 °F 83% 30.09 in 10.0 mi Calm Calm - N/A   Light Drizzle
8:22 PM 71.6 °F 68.0 °F 88% 30.09 in 10.0 mi Calm Calm - N/A   Mostly Cloudy
8:38 PM 73.4 °F 68.0 °F 83% 30.09 in 10.0 mi Variable 6.9 mph - N/A   Overcast
8:45 PM 73.4 °F 68.0 °F 83% 30.09 in 10.0 mi Calm Calm - N/A   Mostly Cloudy
8:55 PM 72.1 °F 67.3 °F 85% 30.10 in 10.0 mi Calm Calm - 0.00 in   Mostly Cloudy
9:21 PM 73.4 °F 66.2 °F 78% 30.09 in 10.0 mi NNE 4.6 mph - N/A   Mostly Cloudy
9:30 PM 73.4 °F 66.2 °F 78% 30.09 in 10.0 mi NNE 5.8 mph - N/A   Light Drizzle
9:38 PM 71.6 °F 66.2 °F 83% 30.09 in 10.0 mi NE 10.4 mph - N/A   Mostly Cloudy
9:55 PM 72.5 °F 66.9 °F 83% 30.10 in 10.0 mi NE 4.6 mph - 0.00 in   Mostly Cloudy
10:06 PM 73.4 °F 66.2 °F 78% 30.10 in 10.0 mi Calm Calm - N/A   Mostly Cloudy
10:18 PM 71.6 °F 66.2 °F 83% 30.09 in 10.0 mi Variable 4.6 mph - N/A   Mostly Cloudy
10:24 PM 71.6 °F 66.2 °F 83% 30.09 in 10.0 mi Variable 3.5 mph - N/A   Mostly Cloudy
10:26 PM 71.6 °F 66.2 °F 83% 30.09 in 10.0 mi Calm Calm - N/A   Mostly Cloudy
10:28 PM 71.6 °F 66.2 °F 83% 30.09 in 10.0 mi Calm Calm - N/A   Mostly Cloudy
10:33 PM 71.6 °F 66.2 °F 83% 30.09 in 10.0 mi Calm Calm - N/A   Scattered Clouds
10:34 PM 71.6 °F 66.2 °F 83% 30.09 in 10.0 mi Calm Calm - N/A   Mostly Cloudy
10:36 PM 71.6 °F 66.2 °F 83% 30.09 in 10.0 mi Calm Calm - N/A   Scattered Clouds
10:39 PM 71.6 °F 66.2 °F 83% 30.09 in 10.0 mi Calm Calm - N/A   Mostly Cloudy
10:55 PM 72.1 °F 66.7 °F 83% 30.09 in 10.0 mi North 4.6 mph - N/A   Mostly Cloudy
11:07 PM 71.6 °F 66.2 °F 83% 30.09 in 10.0 mi Calm Calm - N/A   Scattered Clouds
11:12 PM 71.6 °F 66.2 °F 83% 30.09 in 10.0 mi Calm Calm - N/A   Mostly Cloudy
11:14 PM 71.6 °F 66.2 °F 83% 30.09 in 10.0 mi Calm Calm - N/A   Scattered Clouds
11:15 PM 71.6 °F 66.2 °F 83% 30.09 in 10.0 mi Calm Calm - N/A   Mostly Cloudy
11:24 PM 71.6 °F 66.2 °F 83% 30.09 in 10.0 mi NNE 4.6 mph - N/A   Light Drizzle
11:34 PM 71.6 °F 68.0 °F 88% 30.09 in 10.0 mi NE 4.6 mph - N/A   Mostly Cloudy
11:55 PM 71.6 °F 66.9 °F 85% 30.09 in 10.0 mi SW 3.5 mph - 0.00 in   Mostly Cloudy